Location: Nairn
(57.5833°N, 3.8667°W)
Time: 00:57:14
(UTC+00:00)

NOSS 3-2 (C) - Pass Details

Date: 07 August 2020
Orbit: 800 x 1413 km, 63.4° (Epoch: 15 September)

Event Time Altitude Azimuth Distance (km) Brightness Sun altitude
Exits shadow 00:52:03 - 243° (WSW) 3,053 5.8 -15.8°
Reaches altitude 10° 00:53:16 10° 244° (WSW) 2,605 5.4 -15.8°
Maximum altitude 00:59:21 78° 331° (NNW) 1,041 3.7 -15.7°
Drops below altitude 10° 01:06:32 10° 58° (ENE) 3,038 6.7 -15.5°
Sets 01:09:28 0° 60° (ENE) 4,095 7.4 -15.4°
